FW4279 Weather Reports


time (UTC)temp
F
wind
direction
speed
knots
gust
knots
rain 1hr
in
rain 24hr
in
rain mn
in
humidity
%
barometer
mb
20260506114047 46 240 1.7 3.5 0.00 0.06 0.00 59 1015.8
20260506113547 45 195 0.0 0.0 0.00 0.06 0.00 63 1015.7
20260506113046 46 169 0.0 0.0 0.00 0.06 0.00 61 1015.7
20260506112545 47 169 0.0 0.0 0.00 0.06 0.00 58 1015.5
20260506112044 48 242 0.0 0.0 0.00 0.06 0.00 57 1015.6
20260506111545 48 241 0.0 1.7 0.00 0.06 0.00 56 1015.5
20260506111044 48 241 0.0 2.6 0.00 0.06 0.00 56 1015.6
20260506110544 48 236 0.9 3.5 0.00 0.06 0.00 55 1015.6
20260506110044 48 252 1.7 3.5 0.00 0.06 0.00 55 1015.5
20260506105547 48 243 2.6 3.5 0.00 0.06 0.00 55 1015.4
20260506105046 48 246 1.7 3.5 0.00 0.06 0.00 55 1015.4
20260506104543 49 252 1.7 3.5 0.00 0.06 0.00 55 1015.4
20260506104042 49 35 0.0 0.0 0.00 0.06 0.00 55 1015.4
20260506103542 50 34 0.0 0.9 0.00 0.06 0.00 54 1015.4
20260506103051 50 37 0.0 1.7 0.00 0.06 0.00 53 1015.4
20260506102542 50 24 0.0 2.6 0.00 0.06 0.00 53 1015.4
20260506102042 51 125 0.0 2.6 0.00 0.06 0.00 53 1015.4
20260506101541 51 246 0.0 1.7 0.00 0.06 0.00 52 1015.4
20260506101041 51 246 0.0 2.6 0.00 0.06 0.00 51 1015.4
20260506100544 51 295 0.9 3.5 0.00 0.06 0.00 50 1015.4
20260506100040 52 183 0.9 3.5 0.00 0.06 0.00 49 1015.3
20260506095540 52 191 0.9 2.6 0.00 0.06 0.00 49 1015.2
20260506095040 52 221 0.0 4.3 0.00 0.06 0.00 48 1015.2
20260506094541 52 203 1.7 4.3 0.00 0.06 0.00 48 1015.2
20260506094043 52 203 1.7 4.3 0.00 0.06 0.00 49 1015.2
20260506093539 52 206 0.9 6.1 0.00 0.06 0.00 48 1015.2
20260506093038 52 198 1.7 6.1 0.00 0.06 0.00 47 1015.2
20260506092538 51 203 0.9 4.3 0.00 0.06 0.00 48 1015.3
20260506092036 51 215 0.9 3.5 0.00 0.06 0.00 49 1015.3
20260506091536 51 190 0.9 3.5 0.00 0.06 0.00 49 1015.4
20260506091036 50 189 1.7 3.5 0.00 0.06 0.00 49 1015.4
20260506090539 50 212 0.0 4.3 0.00 0.06 0.00 49 1015.4
20260506090035 50 209 1.7 4.3 0.00 0.06 0.00 49 1015.3
20260506085534 50 177 1.7 4.3 0.00 0.06 0.00 50 1015.3
20260506085034 50 213 0.9 3.5 0.00 0.06 0.00 50 1015.4
20260506084537 49 205 0.9 3.5 0.00 0.06 0.00 51 1015.4
20260506084033 48 176 0.0 3.5 0.00 0.06 0.00 53 1015.3
20260506083536 47 204 0.0 1.7 0.00 0.06 0.00 54 1015.2
20260506083033 46 198 0.0 0.9 0.00 0.06 0.00 57 1015.3
20260506082531 46 226 0.0 0.9 0.00 0.06 0.00 57 1015.3
20260506082031 47 226 0.0 3.5 0.00 0.06 0.00 57 1015.3
20260506081531 47 270 0.9 3.5 0.00 0.06 0.00 56 1015.4
20260506081032 47 223 0.0 0.9 0.00 0.06 0.00 57 1015.5
20260506080530 46 149 0.0 0.9 0.00 0.06 0.00 56 1015.6
20260506073524 49 129 0.9 4.3 0.00 0.06 0.00 51 1015.4
20260506073021 50 111 1.7 5.2 0.00 0.06 0.00 50 1015.4
20260506072519 50 44 1.7 5.2 0.00 0.06 0.00 50 1015.5
20260506072022 50 185 0.0 4.3 0.00 0.06 0.00 47 1015.3
20260506071519 51 187 0.9 4.3 0.00 0.06 0.00 47 1015.2
20260506071017 50 205 0.9 3.5 0.00 0.06 0.00 47 1015.2
20260506070517 51 175 0.0 3.5 0.00 0.06 0.00 47 1015.0
20260506062511 51 213 2.6 7.0 0.00 0.06 0.06 46 1014.9
20260506062011 51 215 1.7 8.7 0.00 0.06 0.06 46 1014.9
20260506061511 51 201 2.6 8.7 0.00 0.06 0.06 47 1014.8
20260506061012 50 217 1.7 6.1 0.00 0.06 0.06 48 1014.8
20260506060511 50 230 0.9 6.1 0.00 0.06 0.06 49 1014.8
20260506051006 49 208 1.7 5.2 0.00 0.06 0.06 53 1014.6
20260506050507 49 191 0.9 3.5 0.00 0.06 0.06 53 1014.6
20260506045007 49 214 0.9 6.1 0.00 0.07 0.06 51 1014.4
20260506044506 49 168 1.7 6.1 0.00 0.07 0.06 52 1014.4
20260506044004 49 204 2.6 5.2 0.00 0.07 0.06 52 1014.3
20260506043505 49 212 1.7 4.3 0.00 0.07 0.06 52 1014.4
20260506043003 49 200 0.9 4.3 0.00 0.07 0.06 52 1014.3
20260506042502 49 207 0.9 4.3 0.00 0.07 0.06 52 1014.1
20260506042003 49 215 0.9 4.3 0.00 0.07 0.06 52 1014.1
20260506041500 49 206 0.9 3.5 0.00 0.07 0.06 52 1013.9
20260506041101 49 219 0.0 4.3 0.00 0.07 0.06 52 1014.0
20260506040559 50 226 0.9 4.3 0.00 0.07 0.06 51 1013.9
20260506040058 50 201 0.9 6.1 0.00 0.07 0.06 52 1013.9
20260506035602 50 219 1.7 6.1 0.00 0.11 0.06 51 1013.8
20260506035058 49 205 2.6 4.3 0.00 0.11 0.06 51 1013.8
20260506034613 49 218 0.9 5.2 0.00 0.11 0.06 52 1013.7
20260506034057 49 200 0.9 5.2 0.00 0.11 0.06 52 1013.7
20260506033554 49 185 1.7 6.1 0.00 0.11 0.06 52 1013.5
20260506033053 49 193 1.7 6.1 0.00 0.11 0.06 53 1013.4
20260506032554 49 221 1.7 4.3 0.00 0.11 0.06 53 1013.4
20260506032053 49 159 1.7 4.3 0.00 0.11 0.06 54 1013.2
20260506031550 48 206 0.0 3.5 0.00 0.11 0.06 56 1013.2
20260506031050 48 200 0.0 2.6 0.00 0.11 0.06 56 1013.1
20260506030549 48 198 0.0 2.6 0.00 0.11 0.06 57 1013.1
20260506030047 49 196 0.0 2.6 0.00 0.11 0.06 57 1013.0
20260506025549 49 174 0.9 1.7 0.00 0.17 0.06 57 1013.0
20260506025046 50 192 0.9 1.7 0.00 0.17 0.06 56 1013.0
20260506024605 51 194 0.0 1.7 0.00 0.17 0.06 53 1013.0
20260506024045 52 186 0.0 0.9 0.00 0.17 0.06 51 1012.9
20260506023545 53 293 0.0 1.7 0.00 0.17 0.06 47 1012.8
20260506023043 53 323 0.0 3.5 0.00 0.17 0.06 45 1012.7
20260506022543 54 339 1.7 7.0 0.00 0.17 0.06 44 1012.6
20260506022043 54 11 1.7 7.0 0.00 0.17 0.06 43 1012.5
20260506021542 54 334 4.3 7.0 0.00 0.17 0.06 43 1012.4
20260506021042 54 337 3.5 7.8 0.00 0.17 0.06 43 1012.4
20260506020541 54 328 3.5 7.8 0.00 0.17 0.06 44 1012.2
20260506020041 55 340 1.7 7.0 0.00 0.17 0.06 46 1012.2
20260506015544 55 333 2.6 7.0 0.00 0.28 0.06 45 1012.1
20260506015041 55 330 2.6 4.3 0.00 0.28 0.06 45 1012.0
20260506014541 56 333 1.7 4.3 0.00 0.28 0.06 45 1011.9
20260506014045 56 45 1.7 4.3 0.00 0.28 0.06 43 1011.8
20260506013544 57 340 0.9 6.1 0.00 0.28 0.06 42 1011.7
20260506013058 57 345 4.3 6.1 0.00 0.28 0.06 41 1011.7
20260506012540 57 25 2.6 5.2 0.00 0.28 0.06 40 1011.7
20260506012040 58 360 0.0 3.5 0.00 0.28 0.06 39 1011.6
20260506011542 58 15 0.9 5.2 0.00 0.28 0.06 37 1011.6
20260506011040 58 7 2.6 6.1 0.00 0.28 0.06 36 1011.6
20260506010539 59 66 2.6 6.1 0.00 0.28 0.06 36 1011.5
20260506010039 58 339 0.0 4.3 0.00 0.28 0.06 37 1011.5
20260506005539 58 304 0.9 2.6 0.00 0.28 0.06 39 1011.5
20260506005037 58 354 0.0 5.2 0.00 0.28 0.06 38 1011.5
20260506004538 57 2 0.9 6.1 0.00 0.28 0.06 39 1011.4
20260506004038 58 288 3.5 6.1 0.00 0.28 0.06 38 1011.4
20260506003538 58 313 1.7 5.2 0.00 0.28 0.06 38 1011.4
20260506003039 59 324 0.9 3.5 0.00 0.28 0.06 35 1011.3
20260506002536 58 203 0.0 1.7 0.00 0.28 0.06 38 1011.4
20260506002037 58 160 0.9 6.1 0.00 0.28 0.06 38 1011.4
20260506001538 57 314 0.9 7.0 0.00 0.28 0.06 37 1011.4
20260506001035 57 312 2.6 7.0 0.00 0.28 0.06 38 1011.3
20260506000637 57 321 2.6 5.2 0.00 0.28 0.06 39 1011.2
20260506000034 57 266 2.6 5.2 0.00 0.28 0.06 37 1011.2
20260505235534 57 28 0.0 5.2 0.00 0.28 0.06 38 1011.2
20260505235034 57 19 1.7 6.1 0.00 0.28 0.06 38 1011.2
20260505234537 57 341 3.5 6.1 0.00 0.28 0.06 36 1011.1
20260505234034 56 340 0.0 5.2 0.00 0.28 0.06 42 1011.2
20260505233535 57 275 0.9 7.0 0.00 0.28 0.06 40 1011.1
20260505233032 56 9 0.0 7.0 0.00 0.28 0.06 39 1011.2
20260505232532 56 344 2.6 5.2 0.00 0.28 0.06 39 1011.2
20260505232032 57 294 1.7 7.0 0.00 0.28 0.06 41 1011.1
20260505231535 58 293 2.6 7.0 0.00 0.28 0.06 39 1011.2
20260505231033 57 90 0.0 1.7 0.00 0.28 0.06 41 1011.3
20260505230528 56 85 0.0 2.6 0.00 0.28 0.06 42 1011.3
20260505230048 56 52 0.9 7.8 0.00 0.28 0.06 44 1011.4
20260505225528 55 102 0.0 7.8 0.00 0.28 0.06 44 1011.4
20260505225130 55 321 4.3 7.8 0.00 0.28 0.06 43 1011.4
20260505224528 55 337 2.6 6.1 0.00 0.28 0.06 45 1011.4
20260505224027 55 320 0.9 5.2 0.00 0.28 0.06 46 1011.4
20260505223527 55 295 1.7 5.2 0.00 0.28 0.06 46 1011.6
20260505223029 55 70 0.0 6.1 0.00 0.28 0.06 47 1011.5
20260505222531 55 4 0.9 7.8 0.00 0.28 0.06 45 1011.6
20260505222027 55 28 3.5 7.8 0.00 0.28 0.06 45 1011.6
20260505221533 56 20 2.6 5.2 0.00 0.28 0.06 44 1011.6
20260505221026 56 39 0.9 3.5 0.00 0.28 0.06 45 1011.6
20260505220524 56 194 0.0 3.5 0.00 0.28 0.06 46 1011.7
20260505220024 54 249 0.0 4.3 0.00 0.28 0.06 48 1011.7
20260505215527 54 256 1.7 7.0 0.00 0.28 0.06 47 1011.7
20260505215024 54 283 3.5 7.0 0.00 0.28 0.06 46 1011.7
20260505214525 54 342 1.7 7.0 0.00 0.28 0.06 45 1011.8
20260505214023 54 338 0.9 6.1 0.00 0.28 0.06 50 1011.8
20260505213522 54 322 2.6 5.2 0.00 0.28 0.06 52 1011.8
20260505213025 54 27 1.7 4.3 0.00 0.28 0.06 49 1011.8
20260505212523 54 233 0.9 2.6 0.00 0.28 0.06 51 1011.9
20260505212019 53 173 0.0 4.3 0.00 0.28 0.06 50 1011.8
20260505211519 53 321 0.0 4.3 0.00 0.28 0.06 51 1011.9
20260505211019 53 11 1.7 3.5 0.00 0.28 0.06 51 1011.9
20260505210518 52 179 0.0 4.3 0.00 0.28 0.06 55 1012.0
20260505210015 52 17 2.6 7.0 0.00 0.28 0.06 58 1012.1
20260505205514 51 309 3.5 7.0 0.00 0.28 0.06 59 1012.1
20260505205015 51 294 1.7 5.2 0.00 0.28 0.06 63 1012.1
20260505204517 51 302 1.7 7.0 0.00 0.28 0.06 62 1012.1
20260505204014 52 337 2.6 7.0 0.00 0.28 0.06 65 1012.0
20260505203514 50 207 0.0 3.5 0.00 0.28 0.06 61 1012.0
20260505203015 50 264 1.7 4.3 0.00 0.28 0.06 62 1012.0
20260505202514 50 274 1.7 4.3 0.00 0.28 0.06 61 1012.0
20260505202013 50 291 1.7 6.1 0.00 0.28 0.06 61 1012.1
20260505201512 50 299 3.5 6.1 0.00 0.28 0.06 62 1012.1
20260505201012 51 293 0.9 4.3 0.00 0.28 0.06 61 1012.2
20260505200510 50 118 1.7 5.2 0.00 0.28 0.06 63 1012.2
20260505200023 49 237 0.9 5.2 0.00 0.28 0.06 65 1012.2
20260505195508 50 281 0.0 4.3 0.00 0.28 0.06 65 1012.3
20260505195008 49 192 0.9 4.3 0.00 0.28 0.06 67 1012.4
20260505194508 48 335 0.0 2.6 0.00 0.28 0.06 68 1012.5
20260505194009 47 297 0.9 2.6 0.00 0.28 0.06 69 1012.5
20260505193509 47 278 0.0 3.5 0.00 0.28 0.06 68 1012.5
20260505193010 48 321 0.9 3.5 0.00 0.28 0.06 69 1012.5
20260505192510 47 24 0.0 2.6 0.00 0.28 0.06 70 1012.3
20260505192006 47 101 0.9 2.6 0.00 0.28 0.06 69 1012.3
20260505191507 47 235 0.9 5.2 0.00 0.28 0.06 69 1012.3
20260505191008 47 240 0.0 5.2 0.00 0.28 0.06 67 1012.2
20260505190507 48 72 1.7 5.2 0.00 0.28 0.06 68 1012.2
20260505190003 49 125 0.9 3.5 0.00 0.28 0.06 69 1012.1
20260505185503 49 150 0.9 3.5 0.00 0.28 0.06 69 1012.1
20260505185002 49 110 0.9 3.5 0.00 0.28 0.06 72 1012.1
20260505184602 48 195 0.0 5.2 0.00 0.28 0.06 74 1012.1
20260505184059 47 83 1.7 5.2 0.00 0.28 0.06 75 1012.1
20260505183558 46 91 0.0 4.3 0.00 0.28 0.06 77 1012.0
20260505183102 46 56 0.0 4.3 0.01 0.28 0.06 76 1011.9
20260505182555 45 94 0.9 4.3 0.01 0.28 0.06 79 1012.0
20260505182054 45 38 0.0 3.5 0.01 0.28 0.06 81 1011.9
20260505181654 44 100 0.0 3.5 0.01 0.28 0.06 84 1011.8
20260505181052 44 134 0.0 3.5 0.01 0.28 0.06 83 1011.6
20260505180549 44 85 0.0 2.6 0.01 0.28 0.06 83 1011.4
20260505180050 43 47 0.0 2.6 0.01 0.28 0.06 84 1011.4
20260505175547 43 120 0.0 0.9 0.01 0.28 0.06 85 1011.4
20260505175047 43 124 0.0 1.7 0.02 0.28 0.06 88 1011.3
20260505174549 42 148 0.0 1.7 0.02 0.28 0.06 88 1011.2
20260505174043 41 250 0.0 0.0 0.02 0.28 0.06 89 1011.2
20260505173541 41 250 0.0 0.9 0.02 0.28 0.06 89 1011.1
20260505173046 40 250 0.0 0.9 0.01 0.28 0.05 89 1011.1
20260505172541 40 309 0.0 0.9 0.01 0.28 0.05 89 1011.1
20260505172039 40 311 0.0 0.9 0.01 0.28 0.05 89 1011.0
20260505171539 40 312 0.0 2.6 0.01 0.28 0.05 89 1011.0
20260505171038 40 323 0.9 3.5 0.01 0.28 0.05 88 1010.9
20260505170537 40 331 0.9 3.5 0.01 0.28 0.05 88 1010.8
20260505170038 40 331 1.7 4.3 0.01 0.28 0.05 88 1010.8
20260505165636 40 326 2.6 4.3 0.01 0.28 0.05 89 1010.8
20260505165036 40 357 0.9 3.5 0.00 0.27 0.04 89 1010.7
20260505164548 40 66 0.0 4.3 0.00 0.27 0.04 89 1010.7
20260505164038 40 32 0.9 3.5 0.00 0.27 0.04 89 1010.7
20260505163534 40 20 1.7 3.5 0.00 0.27 0.04 89 1010.6
20260505163034 40 15 0.9 2.6 0.00 0.27 0.04 89 1010.5
20260505162535 40 332 0.9 3.5 0.00 0.27 0.04 89 1010.5
20260505162033 40 46 0.9 2.6 0.00 0.27 0.04 90 1010.4
20260505161533 40 67 0.0 2.6 0.00 0.27 0.04 90 1010.2
20260505161033 40 29 0.0 2.6 0.01 0.27 0.04 90 1010.2
20260505160532 40 25 0.9 3.5 0.01 0.27 0.04 91 1010.1
20260505153037 40 65 0.0 1.7 0.01 0.27 0.04 91 1009.6
20260505152527 40 25 0.0 2.6 0.01 0.27 0.04 91 1009.6
20260505152026 40 39 0.9 2.6 0.01 0.27 0.04 90 1009.4
20260505151525 40 39 0.0 1.7 0.02 0.27 0.04 90 1009.3
20260505151027 40 64 0.0 1.7 0.01 0.26 0.03 89 1009.2
20260505150526 40 32 0.0 0.9 0.01 0.26 0.03 89 1009.2
20260505140519 39 4 0.0 0.9 0.01 0.25 0.02 89 1008.8
20260505125016 39 295 0.0 0.0 0.01 0.24 0.01 90 1008.3
20260505124518 39 295 0.0 0.9 0.01 0.24 0.01 90 1008.2
20260505124114 39 295 0.0 0.9 0.01 0.24 0.01 90 1008.2
20260505123519 39 297 0.0 0.9 0.01 0.24 0.01 90 1008.2
20260505123017 39 297 0.0 1.7 0.01 0.24 0.01 90 1008.2
20260505122514 39 297 0.0 2.6 0.01 0.24 0.01 90 1008.2
20260505122014 39 319 0.9 2.6 0.00 0.23 0.00 90 1008.2
20260505121514 39 341 0.9 2.6 0.00 0.23 0.00 90 1008.2
20260505121013 39 12 0.0 2.6 0.00 0.23 0.00 90 1008.1
20260505120514 39 333 0.9 2.6 0.00 0.23 0.00 90 1008.1
20260505120012 39 146 0.0 0.0 0.00 0.23 0.00 89 1008.0
20260505115511 39 146 0.0 0.0 0.00 0.23 0.00 89 1008.1
20260505115010 39 143 0.0 0.0 0.00 0.23 0.00 90 1008.2
20260505114520 39 136 0.0 0.0 0.00 0.23 0.00 91 1008.2